Weather History for KGEV - March, 2014

Change the Weather History Date:

Monday, March 10, 2014

  Actual Average Record
Temperature  
Mean Temperature 51 °F -  
Max Temperature 60 °F 53 °F 71 °F (2006)
Min Temperature 42 °F 31 °F 19 °F (1969)
Degree Days  
Heating Degree Days 14    
Growing Degree Days 1 (Base 50)    
Moisture  
Dew Point 25 °F    
Average Humidity 39    
Maximum Humidity 57    
Minimum Humidity 26    
Precipitation  
Precipitation 0.00 in - - ()
Sea Level Pressure  
Sea Level Pressure 29.92 in    
Wind  
Wind Speed 21 mph (WNW)    
Max Wind Speed 39 mph    
Max Gust Speed 52 mph    
Visibility 10 miles    
Events      
Averages and records for this station are not official NWS values.
T = Trace of Precipitation, MM = Missing Value Source: NWS Daily Summary

Daily Weather History Graph

Daily Weather History Graph

Search for Another Location

Airport or City:

Trip Planner

Search our weather history database for the weather conditions in past years. The results will help you decide how hot, cold, wet, or windy it might be!

Date:

Astronomy

Mar. 10, 2014 Rise Set
Actual Time 7:43 AM EDT 7:28 PM EDT
Civil Twilight 7:18 AM EDT 7:54 PM EDT
Nautical Twilight 6:48 AM EDT 8:24 PM EDT
Astronomical Twilight 6:18 AM EDT 8:54 PM EDT
Moon 2:17 PM EDT (3/10) 3:47 AM EDT (3/10)
Length of Visible Light 12h 36m
Length of Day
11h 44m
Waxing Gibbous, 70% of the Moon is Illuminated
Mar 10
Waxing Gibbous
Mar 16
Full
Mar 23
Last Quarter
Mar 30
New
Apr 7
First Quarter

Hourly Weather History & Observations

Time (EDT) Temp. Windchill Dew Point Humidity Pressure Visibility Wind Dir Wind Speed Gust Speed Precip Events Conditions
12:15 AM 44.8 °F 38.3 °F 17.6 °F 34% 30.03 in 10.0 mi WNW 13.8 mph 21.9 mph N/A   Clear
12:35 AM 44.6 °F 39.2 °F 17.2 °F 33% 30.02 in 10.0 mi WNW 10.4 mph 16.1 mph N/A   Clear
12:55 AM 45.1 °F 38.8 °F 15.6 °F 31% 30.02 in 10.0 mi WNW 13.8 mph 18.4 mph N/A   Clear
1:15 AM 45.0 °F 38.9 °F 15.6 °F 31% 30.02 in 10.0 mi WNW 12.7 mph 19.6 mph N/A   Clear
1:35 AM 45.0 °F 38.5 °F 16.7 °F 32% 30.02 in 10.0 mi WNW 13.8 mph 24.2 mph N/A   Clear
1:55 AM 44.6 °F 38.4 °F 18.7 °F 36% 30.00 in 10.0 mi West 12.7 mph 24.2 mph N/A   Clear
2:15 AM 45.1 °F 37.3 °F 20.7 °F 38% 29.99 in 10.0 mi West 19.6 mph 28.8 mph N/A   Clear
2:35 AM 45.1 °F 38.4 °F 22.1 °F 40% 29.98 in 10.0 mi West 15.0 mph 25.3 mph N/A   Clear
2:55 AM 45.5 °F 37.3 °F 22.1 °F 40% 29.98 in 10.0 mi WNW 21.9 mph 29.9 mph N/A   Clear
3:15 AM 45.5 °F 36.1 °F 21.0 °F 38% 29.97 in 10.0 mi WNW 28.8 mph 40.3 mph N/A   Clear
3:35 AM 45.5 °F 35.0 °F 19.8 °F 36% 29.95 in 10.0 mi West 36.8 mph 44.9 mph N/A   Clear
3:55 AM 45.5 °F 35.8 °F 19.4 °F 35% 29.94 in 10.0 mi WNW 31.1 mph 44.9 mph N/A   Clear
4:15 AM 45.9 °F 35.5 °F 19.2 °F 35% 29.93 in 10.0 mi WNW 36.8 mph 48.3 mph N/A   Clear
4:35 AM 45.7 °F 35.0 °F 19.8 °F 36% 29.91 in 10.0 mi WNW 39.1 mph 49.5 mph N/A   Clear
4:55 AM 45.5 °F 35.3 °F 19.4 °F 35% 29.92 in 10.0 mi West 34.5 mph 51.8 mph N/A   Clear
5:15 AM 45.1 °F 34.4 °F 19.2 °F 36% 29.91 in 10.0 mi West 38.0 mph 51.8 mph N/A   Clear
5:35 AM 44.2 °F 33.4 °F 19.9 °F 38% 29.92 in 10.0 mi West 35.7 mph 48.3 mph N/A   Clear
5:55 AM 43.9 °F 33.1 °F 19.6 °F 38% 29.93 in 10.0 mi West 34.5 mph 46.0 mph N/A   Clear
6:15 AM 43.7 °F 32.8 °F 18.9 °F 37% 29.93 in 10.0 mi WNW 34.5 mph 50.6 mph N/A   Clear
6:35 AM 43.2 °F 31.6 °F 19.0 °F 38% 29.92 in 10.0 mi WNW 38.0 mph 44.9 mph N/A   Clear
6:55 AM 43.0 °F 31.5 °F 18.0 °F 37% 29.92 in 10.0 mi West 36.8 mph 51.8 mph N/A   Clear
7:15 AM 42.4 °F 30.8 °F 15.1 °F 33% 29.92 in 10.0 mi WNW 36.8 mph 47.2 mph N/A   Clear
7:35 AM 42.8 °F 31.6 °F 13.6 °F 31% 29.92 in 10.0 mi West 34.5 mph 47.2 mph N/A   Clear
7:55 AM 42.4 °F 31.8 °F 16.9 °F 36% 29.92 in 10.0 mi WNW 29.9 mph 43.7 mph N/A   Clear
8:15 AM 42.4 °F 31.4 °F 21.4 °F 43% 29.92 in 10.0 mi WNW 32.2 mph 44.9 mph N/A   Clear
8:35 AM 42.8 °F 31.9 °F 25.3 °F 50% 29.91 in 10.0 mi WNW 32.2 mph 50.6 mph N/A   Clear
8:55 AM 42.8 °F 32.5 °F 27.3 °F 54% 29.92 in 10.0 mi WNW 28.8 mph 43.7 mph N/A   Clear
9:15 AM 43.0 °F 32.2 °F 28.4 °F 56% 29.92 in 10.0 mi WNW 32.2 mph 42.6 mph N/A   Clear
9:35 AM 43.7 °F 33.0 °F 29.3 °F 57% 29.93 in 10.0 mi WNW 33.4 mph 43.7 mph N/A   Clear
9:55 AM 44.6 °F 34.4 °F 30.0 °F 57% 29.93 in 10.0 mi WNW 32.2 mph 46.0 mph N/A   Clear
10:15 AM 45.5 °F 36.0 °F 30.2 °F 55% 29.93 in 10.0 mi WNW 29.9 mph 43.7 mph N/A   Clear
10:35 AM 46.8 °F - 30.7 °F 54% 29.93 in 10.0 mi West 25.3 mph 36.8 mph N/A   Clear
10:55 AM 47.7 °F - 30.6 °F 52% 29.94 in 10.0 mi West 26.5 mph 34.5 mph N/A   Clear
11:15 AM 48.2 °F - 30.4 °F 50% 29.94 in 10.0 mi West 26.5 mph 36.8 mph N/A   Clear
11:35 AM 49.6 °F - 30.2 °F 47% 29.94 in 10.0 mi West 20.7 mph 33.4 mph N/A   Clear
11:55 AM 49.5 °F - 30.7 °F 49% 29.95 in 10.0 mi West 20.7 mph 28.8 mph N/A   Clear
12:15 PM 49.1 °F - 31.1 °F 50% 29.95 in 10.0 mi West 17.3 mph 26.5 mph N/A   Clear
12:35 PM 50.0 °F - 30.6 °F 47% 29.95 in 10.0 mi West 18.4 mph 25.3 mph N/A   Clear
12:55 PM 51.1 °F - 30.0 °F 44% 29.96 in 10.0 mi WNW 11.5 mph 24.2 mph N/A   Clear
1:15 PM 52.9 °F - 29.7 °F 41% 29.95 in 10.0 mi West 17.3 mph 26.5 mph N/A   Clear
1:35 PM 54.1 °F - 28.0 °F 37% 29.94 in 10.0 mi West 13.8 mph 25.3 mph N/A   Clear
1:55 PM 56.5 °F - 27.0 °F 32% 29.93 in 10.0 mi West 13.8 mph 19.6 mph N/A   Clear
2:15 PM 56.7 °F - 25.3 °F 30% 29.93 in 10.0 mi West 13.8 mph 20.7 mph N/A   Clear
2:35 PM 57.4 °F - 25.5 °F 29% 29.91 in 10.0 mi West 12.7 mph 24.2 mph N/A   Clear
2:55 PM 58.1 °F - 25.0 °F 28% 29.90 in 10.0 mi West 17.3 mph - N/A   Clear
3:15 PM 59.2 °F - 25.7 °F 28% 29.89 in 10.0 mi West 17.3 mph 24.2 mph N/A   Clear
3:35 PM 59.2 °F - 25.7 °F 28% 29.89 in 10.0 mi West 11.5 mph 19.6 mph N/A   Clear
3:55 PM 60.1 °F - 25.7 °F 27% 29.89 in 10.0 mi West 12.7 mph - N/A   Clear
4:15 PM 59.5 °F - 24.1 °F 26% 29.88 in 10.0 mi WNW 12.7 mph 18.4 mph N/A   Clear
4:35 PM 59.5 °F - 24.4 °F 26% 29.88 in 10.0 mi West 12.7 mph 25.3 mph N/A   Clear
4:55 PM 59.4 °F - 25.5 °F 27% 29.88 in 10.0 mi West 12.7 mph 21.9 mph N/A   Clear
5:15 PM 59.2 °F - 25.2 °F 27% 29.87 in 10.0 mi West 15.0 mph 21.9 mph N/A   Clear
5:35 PM 59.0 °F - 25.7 °F 28% 29.88 in 10.0 mi West 12.7 mph 19.6 mph N/A   Clear
5:55 PM 58.5 °F - 25.5 °F 28% 29.87 in 10.0 mi West 18.4 mph 25.3 mph N/A   Clear
6:15 PM 58.1 °F - 25.7 °F 29% 29.87 in 10.0 mi West 13.8 mph 20.7 mph N/A   Clear
6:35 PM 57.4 °F - 26.6 °F 31% 29.88 in 10.0 mi WNW 13.8 mph - N/A   Clear
6:55 PM 56.5 °F - 27.1 °F 32% 29.88 in 10.0 mi West 9.2 mph - N/A   Clear
7:15 PM 55.4 °F - 28.0 °F 35% 29.89 in 10.0 mi West 5.8 mph - N/A   Clear
7:35 PM 54.1 °F - 29.3 °F 39% 29.88 in 10.0 mi WNW 15.0 mph 21.9 mph N/A   Clear
7:55 PM 53.2 °F - 30.7 °F 42% 29.88 in 10.0 mi West 17.3 mph 24.2 mph N/A   Clear
8:15 PM 52.7 °F - 31.1 °F 44% 29.89 in 10.0 mi West 12.7 mph 18.4 mph N/A   Clear
8:35 PM 52.0 °F - 31.1 °F 45% 29.88 in 10.0 mi West 16.1 mph 20.7 mph N/A   Clear
8:55 PM 51.6 °F - 31.1 °F 45% 29.89 in 10.0 mi West 17.3 mph 24.2 mph N/A   Clear
9:15 PM 51.1 °F - 31.1 °F 46% 29.88 in 10.0 mi West 17.3 mph 23.0 mph N/A   Clear
9:35 PM 50.9 °F - 31.6 °F 48% 29.87 in 10.0 mi West 20.7 mph 25.3 mph N/A   Clear
9:55 PM 50.9 °F - 31.1 °F 47% 29.87 in 10.0 mi West 20.7 mph 27.6 mph N/A   Clear
10:15 PM 51.3 °F - 31.1 °F 46% 29.86 in 10.0 mi West 21.9 mph 28.8 mph N/A   Clear
10:35 PM 51.8 °F - 31.3 °F 46% 29.87 in 10.0 mi West 20.7 mph 33.4 mph N/A   Clear
10:55 PM 51.8 °F - 32.0 °F 47% 29.86 in 10.0 mi West 25.3 mph 36.8 mph N/A   Clear
11:15 PM 52.0 °F - 32.5 °F 48% 29.85 in 10.0 mi West 28.8 mph 38.0 mph N/A   Clear
11:35 PM 52.3 °F - 33.1 °F 48% 29.86 in 10.0 mi WNW 24.2 mph 36.8 mph N/A   Clear
11:55 PM 52.7 °F - 33.3 °F 48% 29.85 in 10.0 mi West 24.2 mph 34.5 mph N/A   Clear